N1257E 2NC0-KAUO

Flight info

Callsign N1257E
Flight time 1h 11m
Altitude 30000
Route RHILE DCT RMG
Aircraft TBM8/L-SDFGRWY/S

Departure

Time 2026-05-04 20:53
Airport Mountain Air Airport (2NC0)

Arrival

Time 2026-05-04 22:05
Airport Auburn University Regional Airport (KAUO)
Time Latitude Longitude Altitude Speed Heading
2026-05-04 20:47 35.87069 -82.34384 4401 ft 0 kts 219°
2026-05-04 20:51 35.87076 -82.34423 4400 ft 10 kts 313°
2026-05-04 20:51 35.87114 -82.34492 4405 ft 8 kts 299°
2026-05-04 20:51 35.87130 -82.34521 4408 ft 0 kts 311°
2026-05-04 20:51 35.87167 -82.34557 4409 ft 8 kts 310°
2026-05-04 20:52 35.87139 -82.34537 4411 ft 22 kts 135°
2026-05-04 20:52 35.86886 -82.34232 4373 ft 80 kts 136°
2026-05-04 20:52 35.86389 -82.33658 4487 ft 110 kts 135°
2026-05-04 20:52 35.85820 -82.32869 4673 ft 134 kts 142°
2026-05-04 20:53 35.85070 -82.32019 4798 ft 150 kts 148°
2026-05-04 20:53 35.84159 -82.31446 5216 ft 146 kts 163°
2026-05-04 20:53 35.83183 -82.31179 5577 ft 155 kts 174°
2026-05-04 20:53 35.82082 -82.31063 6058 ft 158 kts 179°
2026-05-04 20:54 35.80990 -82.30981 6581 ft 156 kts 184°
2026-05-04 20:54 35.79904 -82.31128 7031 ft 157 kts 196°
2026-05-04 20:54 35.78917 -82.31557 7519 ft 152 kts 212°
2026-05-04 20:54 35.78056 -82.32325 8018 ft 146 kts 226°
2026-05-04 20:55 35.77468 -82.33299 8466 ft 142 kts 243°
2026-05-04 20:55 35.77096 -82.34439 8969 ft 143 kts 248°
2026-05-04 20:55 35.76750 -82.35516 9630 ft 134 kts 248°
2026-05-04 20:55 35.76317 -82.36510 10172 ft 133 kts 239°
2026-05-04 20:56 35.75826 -82.37480 10638 ft 133 kts 242°
2026-05-04 20:56 35.75333 -82.38447 11124 ft 134 kts 240°
2026-05-04 20:56 35.74802 -82.39398 11558 ft 137 kts 240°
2026-05-04 20:56 35.74251 -82.40382 11979 ft 140 kts 239°
2026-05-04 20:57 35.73697 -82.41365 12460 ft 140 kts 239°
2026-05-04 20:57 35.73156 -82.42329 12889 ft 141 kts 241°
2026-05-04 20:57 35.72599 -82.43321 13381 ft 142 kts 240°
2026-05-04 20:57 35.72040 -82.44340 13819 ft 144 kts 242°
2026-05-04 20:58 35.71469 -82.45344 14278 ft 144 kts 240°
2026-05-04 20:58 35.70890 -82.46364 14679 ft 146 kts 241°
2026-05-04 20:58 35.70311 -82.47397 15090 ft 147 kts 241°
2026-05-04 20:58 35.69730 -82.48439 15514 ft 148 kts 241°
2026-05-04 20:59 35.69140 -82.49490 15914 ft 151 kts 242°
2026-05-04 20:59 35.68552 -82.50539 16322 ft 153 kts 242°
2026-05-04 20:59 35.67947 -82.51621 16711 ft 154 kts 242°
2026-05-04 20:59 35.67335 -82.52705 17103 ft 156 kts 242°
2026-05-04 21:00 35.66715 -82.53805 17474 ft 157 kts 242°
2026-05-04 21:00 35.66090 -82.54913 17845 ft 159 kts 243°
2026-05-04 21:00 35.65461 -82.56035 18224 ft 160 kts 243°
2026-05-04 21:00 35.64828 -82.57167 18589 ft 161 kts 243°
2026-05-04 21:01 35.64189 -82.58294 18947 ft 161 kts 243°
2026-05-04 21:01 35.63549 -82.59429 19286 ft 161 kts 243°
2026-05-04 21:01 35.62913 -82.60561 19629 ft 161 kts 243°
2026-05-04 21:01 35.62278 -82.61689 19972 ft 161 kts 243°
2026-05-04 21:02 35.61642 -82.62821 20320 ft 161 kts 243°
2026-05-04 21:02 35.61006 -82.63950 20661 ft 161 kts 243°
2026-05-04 21:02 35.60369 -82.65080 21000 ft 161 kts 244°
2026-05-04 21:02 35.59730 -82.66211 21332 ft 161 kts 244°
2026-05-04 21:03 35.59092 -82.67342 21661 ft 161 kts 244°
2026-05-04 21:03 35.58457 -82.68479 22017 ft 161 kts 244°
2026-05-04 21:03 35.57816 -82.69613 22345 ft 162 kts 244°
2026-05-04 21:03 35.57173 -82.70750 22671 ft 162 kts 244°
2026-05-04 21:04 35.56531 -82.71886 22997 ft 162 kts 244°
2026-05-04 21:04 35.56107 -82.72638 23198 ft 162 kts 244°
2026-05-04 21:04 35.55456 -82.73790 23507 ft 162 kts 244°
2026-05-04 21:04 35.54823 -82.74914 23784 ft 162 kts 244°
2026-05-04 21:05 35.54167 -82.76068 24055 ft 163 kts 244°
2026-05-04 21:05 35.53528 -82.77199 24272 ft 164 kts 244°
2026-05-04 21:05 35.52871 -82.78364 24510 ft 167 kts 243°
2026-05-04 21:05 35.52210 -82.79534 24777 ft 167 kts 244°
2026-05-04 21:06 35.51543 -82.80708 25047 ft 168 kts 243°
2026-05-04 21:06 35.50876 -82.81885 25298 ft 168 kts 244°
2026-05-04 21:06 35.50208 -82.83066 25552 ft 169 kts 244°
2026-05-04 21:06 35.49541 -82.84250 25819 ft 169 kts 244°
2026-05-04 21:07 35.48866 -82.85434 26085 ft 170 kts 244°
2026-05-04 21:07 35.48191 -82.86625 26335 ft 170 kts 244°
2026-05-04 21:07 35.47514 -82.87819 26591 ft 171 kts 244°
2026-05-04 21:07 35.46836 -82.89017 26846 ft 171 kts 244°
2026-05-04 21:08 35.46155 -82.90217 27090 ft 172 kts 244°
2026-05-04 21:08 35.45471 -82.91420 27327 ft 172 kts 244°
2026-05-04 21:08 35.44789 -82.92619 27564 ft 171 kts 244°
2026-05-04 21:08 35.44107 -82.93821 27788 ft 172 kts 244°
2026-05-04 21:09 35.43423 -82.95029 28048 ft 173 kts 244°
2026-05-04 21:09 35.42726 -82.96240 28276 ft 174 kts 244°
2026-05-04 21:09 35.42034 -82.97471 28465 ft 176 kts 244°
2026-05-04 21:09 35.41331 -82.98692 28743 ft 175 kts 244°
2026-05-04 21:10 35.40631 -82.99922 28986 ft 176 kts 244°
2026-05-04 21:10 35.39931 -83.01154 29186 ft 177 kts 244°
2026-05-04 21:10 35.39232 -83.02394 29421 ft 177 kts 244°
2026-05-04 21:10 35.38521 -83.03629 29653 ft 178 kts 243°
2026-05-04 21:11 35.37813 -83.04872 29897 ft 178 kts 244°
2026-05-04 21:11 35.37097 -83.06131 30014 ft 184 kts 244°
2026-05-04 21:11 35.36321 -83.07439 30027 ft 196 kts 240°
2026-05-04 21:11 35.35458 -83.08752 30118 ft 202 kts 241°
2026-05-04 21:12 35.34677 -83.10211 30107 ft 209 kts 245°
2026-05-04 21:12 35.33873 -83.11741 30106 ft 219 kts 243°
2026-05-04 21:12 35.32987 -83.13305 30110 ft 227 kts 242°
2026-05-04 21:12 35.32066 -83.14906 30108 ft 234 kts 242°
2026-05-04 21:13 35.31121 -83.16558 30105 ft 240 kts 242°
2026-05-04 21:13 35.30157 -83.18243 30098 ft 244 kts 241°
2026-05-04 21:13 35.29170 -83.19954 30109 ft 248 kts 241°
2026-05-04 21:13 35.28172 -83.21691 30109 ft 251 kts 240°
2026-05-04 21:14 35.27169 -83.23441 30101 ft 252 kts 242°
2026-05-04 21:14 35.26163 -83.25208 30106 ft 254 kts 242°
2026-05-04 21:14 35.25150 -83.26990 30108 ft 256 kts 241°
2026-05-04 21:14 35.24118 -83.28775 30109 ft 258 kts 241°
2026-05-04 21:15 35.23084 -83.30567 30109 ft 258 kts 241°
2026-05-04 21:15 35.22055 -83.32369 30099 ft 259 kts 241°
2026-05-04 21:15 35.21011 -83.34179 30104 ft 260 kts 241°
2026-05-04 21:15 35.19965 -83.35984 30101 ft 261 kts 240°
2026-05-04 21:16 35.18923 -83.37797 30101 ft 261 kts 241°
2026-05-04 21:16 35.17887 -83.39602 30099 ft 261 kts 241°
2026-05-04 21:16 35.16846 -83.41416 30106 ft 261 kts 241°
2026-05-04 21:16 35.15800 -83.43230 30106 ft 261 kts 241°
2026-05-04 21:17 35.14755 -83.45043 30105 ft 261 kts 240°
2026-05-04 21:17 35.13709 -83.46857 30104 ft 261 kts 241°
2026-05-04 21:17 35.12662 -83.48675 30100 ft 262 kts 240°
2026-05-04 21:17 35.11612 -83.50494 30100 ft 262 kts 241°
2026-05-04 21:18 35.10561 -83.52309 30101 ft 262 kts 240°
2026-05-04 21:18 35.09512 -83.54127 30097 ft 262 kts 240°
2026-05-04 21:18 35.08464 -83.55943 30097 ft 262 kts 240°
2026-05-04 21:18 35.07414 -83.57756 30097 ft 261 kts 240°
2026-05-04 21:19 35.06364 -83.59570 30101 ft 262 kts 240°
2026-05-04 21:19 35.05352 -83.61320 30097 ft 263 kts 240°
2026-05-04 21:19 35.04296 -83.63143 30103 ft 263 kts 240°
2026-05-04 21:19 35.03239 -83.64966 30100 ft 263 kts 240°
2026-05-04 21:20 35.02183 -83.66787 30094 ft 263 kts 240°
2026-05-04 21:20 35.01125 -83.68609 30101 ft 263 kts 240°
2026-05-04 21:20 35.00084 -83.70403 30101 ft 263 kts 240°
2026-05-04 21:20 34.99027 -83.72221 30100 ft 263 kts 240°
2026-05-04 21:21 34.97971 -83.74040 30106 ft 263 kts 240°
2026-05-04 21:21 34.96918 -83.75856 30106 ft 263 kts 240°
2026-05-04 21:21 34.95861 -83.77673 30104 ft 263 kts 240°
2026-05-04 21:21 34.94804 -83.79487 30113 ft 262 kts 240°
2026-05-04 21:22 34.93749 -83.81300 30111 ft 262 kts 240°
2026-05-04 21:22 34.92695 -83.83114 30112 ft 262 kts 240°
2026-05-04 21:22 34.91634 -83.84921 30115 ft 262 kts 240°
2026-05-04 21:22 34.90579 -83.86735 30115 ft 262 kts 240°
2026-05-04 21:23 34.89525 -83.88552 30113 ft 263 kts 240°
2026-05-04 21:23 34.88454 -83.90345 30123 ft 261 kts 237°
2026-05-04 21:23 34.87387 -83.92116 30127 ft 259 kts 242°
2026-05-04 21:23 34.86401 -83.93947 30128 ft 260 kts 241°
2026-05-04 21:24 34.85350 -83.95748 30125 ft 262 kts 239°
2026-05-04 21:24 34.84266 -83.97541 30104 ft 264 kts 239°
2026-05-04 21:24 34.83198 -83.99357 30119 ft 264 kts 239°
2026-05-04 21:24 34.82135 -84.01189 30121 ft 266 kts 239°
2026-05-04 21:25 34.81062 -84.03024 30127 ft 266 kts 239°
2026-05-04 21:25 34.79984 -84.04862 30127 ft 267 kts 239°
2026-05-04 21:25 34.78904 -84.06700 30129 ft 268 kts 239°
2026-05-04 21:25 34.77820 -84.08547 30121 ft 269 kts 239°
2026-05-04 21:26 34.76733 -84.10401 30118 ft 269 kts 239°
2026-05-04 21:26 34.75645 -84.12254 30117 ft 270 kts 239°
2026-05-04 21:26 34.74554 -84.14110 30119 ft 270 kts 239°
2026-05-04 21:26 34.73460 -84.15972 30118 ft 271 kts 239°
2026-05-04 21:27 34.72366 -84.17835 30121 ft 271 kts 239°
2026-05-04 21:27 34.71267 -84.19698 30118 ft 271 kts 239°
2026-05-04 21:27 34.70165 -84.21566 30117 ft 273 kts 239°
2026-05-04 21:27 34.69061 -84.23444 30121 ft 274 kts 239°
2026-05-04 21:28 34.67948 -84.25329 30119 ft 275 kts 239°
2026-05-04 21:28 34.66831 -84.27223 30122 ft 277 kts 239°
2026-05-04 21:28 34.65710 -84.29127 30117 ft 278 kts 239°
2026-05-04 21:28 34.64583 -84.31036 30121 ft 279 kts 239°
2026-05-04 21:29 34.63452 -84.32950 30119 ft 279 kts 239°
2026-05-04 21:29 34.62323 -84.34861 30116 ft 280 kts 239°
2026-05-04 21:29 34.61186 -84.36783 30114 ft 280 kts 239°
2026-05-04 21:29 34.60054 -84.38697 30100 ft 280 kts 239°
2026-05-04 21:30 34.58914 -84.40624 30099 ft 279 kts 239°
2026-05-04 21:30 34.57779 -84.42538 30100 ft 279 kts 239°
2026-05-04 21:30 34.56644 -84.44453 30101 ft 280 kts 239°
2026-05-04 21:30 34.55510 -84.46369 30102 ft 279 kts 239°
2026-05-04 21:31 34.53238 -84.50193 30105 ft 279 kts 239°
2026-05-04 21:31 34.52103 -84.52106 30097 ft 279 kts 239°
2026-05-04 21:31 34.50969 -84.54015 30093 ft 279 kts 239°
2026-05-04 21:32 34.49833 -84.55925 30088 ft 279 kts 239°
2026-05-04 21:32 34.48697 -84.57835 30087 ft 279 kts 239°
2026-05-04 21:32 34.47561 -84.59743 30087 ft 279 kts 239°
2026-05-04 21:32 34.46425 -84.61651 30088 ft 279 kts 239°
2026-05-04 21:33 34.45292 -84.63554 30091 ft 279 kts 239°
2026-05-04 21:33 34.44156 -84.65458 30108 ft 279 kts 239°
2026-05-04 21:33 34.43021 -84.67362 30103 ft 279 kts 239°
2026-05-04 21:33 34.41882 -84.69268 30103 ft 279 kts 239°
2026-05-04 21:34 34.40746 -84.71173 30090 ft 280 kts 239°
2026-05-04 21:34 34.39602 -84.73089 30035 ft 282 kts 239°
2026-05-04 21:34 34.38453 -84.75011 30016 ft 282 kts 239°
2026-05-04 21:34 34.37319 -84.76906 30017 ft 282 kts 239°
2026-05-04 21:35 34.36172 -84.78824 30002 ft 281 kts 238°
2026-05-04 21:35 34.35023 -84.80741 30007 ft 281 kts 238°
2026-05-04 21:35 34.33874 -84.82659 30006 ft 282 kts 238°
2026-05-04 21:35 34.32724 -84.84579 30007 ft 282 kts 238°
2026-05-04 21:36 34.31573 -84.86498 30009 ft 282 kts 238°
2026-05-04 21:36 34.30420 -84.88420 30011 ft 282 kts 238°
2026-05-04 21:36 34.29267 -84.90343 30012 ft 282 kts 238°
2026-05-04 21:36 34.28112 -84.92264 29984 ft 283 kts 238°
2026-05-04 21:37 34.26951 -84.94199 29789 ft 289 kts 238°
2026-05-04 21:37 34.25759 -84.96191 29512 ft 295 kts 238°
2026-05-04 21:37 34.24549 -84.98208 29237 ft 297 kts 238°
2026-05-04 21:37 34.23332 -85.00225 28967 ft 297 kts 238°
2026-05-04 21:38 34.22113 -85.02243 28685 ft 298 kts 238°
2026-05-04 21:38 34.20893 -85.04268 28419 ft 298 kts 238°
2026-05-04 21:38 34.19672 -85.06297 28155 ft 300 kts 238°
2026-05-04 21:38 34.18442 -85.08334 27890 ft 300 kts 238°
2026-05-04 21:39 34.17080 -85.10258 27621 ft 305 kts 226°
2026-05-04 21:39 34.15308 -85.11713 27354 ft 312 kts 213°
2026-05-04 21:39 34.13233 -85.12586 27088 ft 322 kts 198°
2026-05-04 21:39 34.11019 -85.13037 26830 ft 323 kts 195°
2026-05-04 21:40 34.08805 -85.13483 26583 ft 323 kts 195°
2026-05-04 21:40 34.06592 -85.13947 26335 ft 323 kts 196°
2026-05-04 21:40 34.04378 -85.14408 26089 ft 323 kts 195°
2026-05-04 21:40 34.02166 -85.14862 25845 ft 322 kts 195°
2026-05-04 21:41 33.99955 -85.15317 25603 ft 322 kts 195°
2026-05-04 21:41 33.97750 -85.15772 25362 ft 321 kts 195°
2026-05-04 21:41 33.95551 -85.16226 25123 ft 321 kts 195°
2026-05-04 21:41 33.93355 -85.16678 24886 ft 320 kts 195°
2026-05-04 21:42 33.91164 -85.17129 24653 ft 319 kts 195°
2026-05-04 21:42 33.88978 -85.17567 24420 ft 318 kts 195°
2026-05-04 21:42 33.86831 -85.18002 24191 ft 316 kts 195°
2026-05-04 21:42 33.84665 -85.18456 23939 ft 315 kts 196°
2026-05-04 21:43 33.82507 -85.18904 23714 ft 314 kts 195°
2026-05-04 21:43 33.80327 -85.19348 23464 ft 313 kts 195°
2026-05-04 21:43 33.78212 -85.19780 23196 ft 312 kts 195°
2026-05-04 21:43 33.76043 -85.20226 22923 ft 311 kts 195°
2026-05-04 21:44 33.73943 -85.20657 22708 ft 310 kts 195°
2026-05-04 21:44 33.71825 -85.21092 22448 ft 308 kts 195°
2026-05-04 21:44 33.69716 -85.21526 22187 ft 307 kts 195°
2026-05-04 21:44 33.67618 -85.21954 21928 ft 305 kts 195°
2026-05-04 21:45 33.65527 -85.22378 21667 ft 304 kts 195°
2026-05-04 21:45 33.63446 -85.22806 21413 ft 303 kts 195°
2026-05-04 21:45 33.61379 -85.23230 21160 ft 301 kts 194°
2026-05-04 21:45 33.59319 -85.23648 20908 ft 299 kts 194°
2026-05-04 21:46 33.57270 -85.24067 20647 ft 298 kts 194°
2026-05-04 21:46 33.55230 -85.24485 20400 ft 297 kts 194°
2026-05-04 21:46 33.53199 -85.24899 20154 ft 295 kts 194°
2026-05-04 21:46 33.51180 -85.25310 19909 ft 294 kts 194°
2026-05-04 21:47 33.49163 -85.25721 19669 ft 294 kts 194°
2026-05-04 21:47 33.47149 -85.26131 19428 ft 294 kts 194°
2026-05-04 21:47 33.45137 -85.26542 19188 ft 293 kts 194°
2026-05-04 21:47 33.43127 -85.26951 18947 ft 292 kts 193°
2026-05-04 21:48 33.41127 -85.27360 18714 ft 291 kts 193°
2026-05-04 21:48 33.39129 -85.27766 18478 ft 290 kts 193°
2026-05-04 21:48 33.37143 -85.28167 18229 ft 289 kts 193°
2026-05-04 21:48 33.35834 -85.28433 18051 ft 288 kts 193°
2026-05-04 21:49 33.33199 -85.28968 17697 ft 287 kts 193°
2026-05-04 21:49 33.31899 -85.29233 17516 ft 286 kts 193°
2026-05-04 21:49 33.29941 -85.29631 17257 ft 285 kts 193°
2026-05-04 21:49 33.27991 -85.30026 16998 ft 284 kts 193°
2026-05-04 21:50 33.26041 -85.30420 16747 ft 284 kts 193°
2026-05-04 21:50 33.24100 -85.30815 16494 ft 283 kts 193°
2026-05-04 21:50 33.22160 -85.31207 16242 ft 282 kts 192°
2026-05-04 21:50 33.20230 -85.31598 15992 ft 281 kts 192°
2026-05-04 21:51 33.18301 -85.31987 15741 ft 280 kts 192°
2026-05-04 21:51 33.16381 -85.32377 15496 ft 280 kts 192°
2026-05-04 21:51 33.14463 -85.32764 15254 ft 279 kts 192°
2026-05-04 21:51 33.12549 -85.33152 15025 ft 278 kts 192°
2026-05-04 21:52 33.10666 -85.33529 15006 ft 271 kts 192°
2026-05-04 21:52 33.08830 -85.33898 15004 ft 265 kts 192°
2026-05-04 21:52 33.07024 -85.34263 14993 ft 262 kts 192°
2026-05-04 21:52 33.05237 -85.34625 14995 ft 260 kts 192°
2026-05-04 21:53 33.03459 -85.34980 14992 ft 258 kts 192°
2026-05-04 21:53 33.01690 -85.35336 14994 ft 257 kts 192°
2026-05-04 21:53 32.99927 -85.35691 14988 ft 257 kts 192°
2026-05-04 21:53 32.98164 -85.36047 14886 ft 259 kts 192°
2026-05-04 21:54 32.96403 -85.36420 14526 ft 255 kts 193°
2026-05-04 21:54 32.94671 -85.36772 14095 ft 249 kts 192°
2026-05-04 21:54 32.93021 -85.37106 13597 ft 231 kts 192°
2026-05-04 21:54 32.91479 -85.37402 13070 ft 219 kts 192°
2026-05-04 21:55 32.90012 -85.37715 12557 ft 207 kts 196°
2026-05-04 21:55 32.88752 -85.38341 12142 ft 188 kts 215°
2026-05-04 21:55 32.87814 -85.39357 11679 ft 180 kts 231°
2026-05-04 21:55 32.87197 -85.40643 11223 ft 181 kts 247°
2026-05-04 21:56 32.86924 -85.42107 10729 ft 185 kts 264°
2026-05-04 21:56 32.87121 -85.43579 10292 ft 175 kts 290°
2026-05-04 21:56 32.87914 -85.44624 9947 ft 170 kts 327°
2026-05-04 21:56 32.89075 -85.44838 9570 ft 182 kts
2026-05-04 21:57 32.90214 -85.44086 9170 ft 195 kts 48°
2026-05-04 21:57 32.90778 -85.42633 8728 ft 198 kts 86°
2026-05-04 21:57 32.90521 -85.41087 8411 ft 185 kts 123°
2026-05-04 21:57 32.89614 -85.40117 8066 ft 175 kts 162°
2026-05-04 21:58 32.88425 -85.40038 7607 ft 173 kts 191°
2026-05-04 21:58 32.87298 -85.40384 7099 ft 159 kts 200°
2026-05-04 21:58 32.86294 -85.40812 6600 ft 148 kts 199°
2026-05-04 21:58 32.85340 -85.41129 6215 ft 138 kts 193°
2026-05-04 21:59 32.84407 -85.41372 5719 ft 138 kts 193°
2026-05-04 21:59 32.83479 -85.41626 5272 ft 135 kts 194°
2026-05-04 21:59 32.82526 -85.41910 4864 ft 156 kts 193°
2026-05-04 21:59 32.81406 -85.42211 4625 ft 169 kts 193°
2026-05-04 22:00 32.80223 -85.42480 4357 ft 176 kts 190°
2026-05-04 22:00 32.79011 -85.42707 4168 ft 176 kts 189°
2026-05-04 22:00 32.77792 -85.42923 3950 ft 178 kts 189°
2026-05-04 22:00 32.76585 -85.43126 3764 ft 177 kts 188°
2026-05-04 22:01 32.75347 -85.43306 3550 ft 178 kts 187°
2026-05-04 22:01 32.74105 -85.43413 3282 ft 179 kts 184°
2026-05-04 22:01 32.72896 -85.43458 2998 ft 169 kts 181°
2026-05-04 22:01 32.71741 -85.43459 2730 ft 169 kts 180°
2026-05-04 22:02 32.70585 -85.43400 2352 ft 164 kts 174°
2026-05-04 22:02 32.69482 -85.43345 2248 ft 155 kts 180°
2026-05-04 22:02 32.68447 -85.43354 2168 ft 145 kts 177°
2026-05-04 22:02 32.67454 -85.43354 1999 ft 140 kts 185°
2026-05-04 22:03 32.66507 -85.43475 1776 ft 129 kts 190°
2026-05-04 22:03 32.65709 -85.43601 1635 ft 95 kts 187°
2026-05-04 22:03 32.65068 -85.43575 1495 ft 95 kts 178°
2026-05-04 22:03 32.64394 -85.43554 1371 ft 98 kts 185°
2026-05-04 22:04 32.63694 -85.43577 1249 ft 104 kts 181°
2026-05-04 22:04 32.62974 -85.43584 1057 ft 100 kts 181°
2026-05-04 22:04 32.62305 -85.43600 887 ft 90 kts 181°
2026-05-04 22:04 32.61729 -85.43611 784 ft 75 kts 180°
2026-05-04 22:05 32.61278 -85.43621 780 ft 46 kts 181°
2026-05-04 22:05 32.61055 -85.43626 781 ft 27 kts 180°
2026-05-04 22:05 32.60969 -85.43554 781 ft 13 kts 89°
2026-05-04 22:05 32.60968 -85.43528 781 ft 0 kts 89°
2026-05-04 22:06 32.60987 -85.43498 781 ft 13 kts 20°
2026-05-04 22:06 32.61127 -85.43492 781 ft 26 kts
2026-05-04 22:06 32.61314 -85.43489 781 ft 25 kts
2026-05-04 22:07 32.61460 -85.43486 780 ft 12 kts
2026-05-04 22:07 32.61513 -85.43480 781 ft 7 kts 24°
2026-05-04 22:07 32.61558 -85.43435 781 ft 12 kts 48°
2026-05-04 22:07 32.61514 -85.43345 781 ft 15 kts 131°
2026-05-04 22:08 32.61446 -85.43363 781 ft 13 kts 238°
2026-05-04 22:08 32.61420 -85.43358 781 ft 3 kts 91°
2026-05-04 22:08 32.61420 -85.43349 781 ft 0 kts 89°